UAE8T LSZH-OMDB

Flight info

Callsign UAE8T
Flight time N/A
Altitude 35000
Route DEGES Z2 XEBIX L607 ELMEM N606 GIRIS DCT TISAX DCT NAXAV DCT GIKEB DCT ROSKA DCT ROTAR DCT AIOSA DCT LATAN DCT SALUN N705 MMA P751 DASUM Y234 FYM M872 BDB Y214 RAPMA DCT KUVSO DCT KATIT DCT PEKEM M628 RIGIL G783 ASPED Q308 KIPOK Q568 IMPED
Aircraft B77W/H-SDE1E2E3FGHIJ2J3J4J5M1RWXY/LB1D1

Departure

Time 2026-05-07 20:04
Airport Zürich Airport (LSZH)

Arrival

Time N/A
Airport Dubai International Airport (OMDB)
Time Latitude Longitude Altitude Speed Heading
2026-05-07 19:28 47.46201 8.55094 1391 ft 0 kts 154°
2026-05-07 19:50 47.46214 8.55085 1390 ft 2 kts 154°
2026-05-07 19:50 47.46228 8.55075 1390 ft 2 kts 154°
2026-05-07 19:50 47.46240 8.55067 1390 ft 0 kts 154°
2026-05-07 19:51 47.46251 8.55058 1390 ft 2 kts 148°
2026-05-07 19:51 47.46262 8.55046 1390 ft 2 kts 136°
2026-05-07 19:51 47.46273 8.55029 1390 ft 2 kts 127°
2026-05-07 19:51 47.46281 8.55011 1390 ft 2 kts 117°
2026-05-07 19:52 47.46286 8.54991 1390 ft 2 kts 108°
2026-05-07 19:52 47.46290 8.54970 1390 ft 2 kts 98°
2026-05-07 19:52 47.46291 8.54962 1390 ft 0 kts 95°
2026-05-07 19:54 47.46289 8.54980 1390 ft 4 kts 95°
2026-05-07 19:55 47.46284 8.55083 1390 ft 15 kts 96°
2026-05-07 19:55 47.46268 8.55276 1390 ft 22 kts 98°
2026-05-07 19:55 47.46252 8.55534 1390 ft 26 kts 96°
2026-05-07 19:55 47.46234 8.55787 1390 ft 23 kts 96°
2026-05-07 19:56 47.46194 8.55998 1390 ft 20 kts 128°
2026-05-07 19:56 47.46128 8.56099 1390 ft 9 kts 137°
2026-05-07 19:56 47.46087 8.56155 1389 ft 2 kts 137°
2026-05-07 19:56 47.46079 8.56165 1389 ft 0 kts 138°
2026-05-07 20:00 47.46079 8.56166 1389 ft 0 kts 138°
2026-05-07 20:00 47.46065 8.56187 1389 ft 4 kts 130°
2026-05-07 20:00 47.46048 8.56249 1389 ft 8 kts 101°
2026-05-07 20:01 47.46070 8.56330 1391 ft 8 kts 47°
2026-05-07 20:01 47.46114 8.56397 1392 ft 9 kts 46°
2026-05-07 20:01 47.46151 8.56410 1393 ft 0 kts 319°
2026-05-07 20:01 47.46153 8.56409 1393 ft 0 kts 317°
2026-05-07 20:03 47.46155 8.56405 1393 ft 4 kts 316°
2026-05-07 20:03 47.46319 8.56179 1392 ft 67 kts 319°
2026-05-07 20:03 47.46841 8.55471 1391 ft 134 kts 317°
2026-05-07 20:04 47.47659 8.54345 1506 ft 177 kts 318°
2026-05-07 20:04 47.48546 8.53138 2195 ft 178 kts 318°
2026-05-07 20:04 47.49536 8.52020 2808 ft 185 kts 329°
2026-05-07 20:04 47.50683 8.50981 3168 ft 202 kts 331°
2026-05-07 20:05 47.51937 8.49904 3595 ft 217 kts 329°
2026-05-07 20:05 47.53037 8.48328 4179 ft 225 kts 302°
2026-05-07 20:05 47.53528 8.46157 4796 ft 230 kts 274°
2026-05-07 20:05 47.53309 8.43833 5444 ft 231 kts 251°
2026-05-07 20:06 47.52741 8.41642 6196 ft 230 kts 245°
2026-05-07 20:06 47.52073 8.39507 6916 ft 230 kts 244°
2026-05-07 20:06 47.51221 8.37515 7426 ft 240 kts 222°
2026-05-07 20:06 47.49728 8.36287 7724 ft 258 kts 193°
2026-05-07 20:07 47.47904 8.36322 8070 ft 275 kts 164°
2026-05-07 20:07 47.46249 8.37708 8738 ft 281 kts 137°
2026-05-07 20:07 47.45150 8.40127 9418 ft 289 kts 111°
2026-05-07 20:07 47.44877 8.43037 10081 ft 297 kts 85°
2026-05-07 20:08 47.45301 8.46091 10567 ft 310 kts 80°
2026-05-07 20:08 47.45602 8.49338 10954 ft 327 kts 87°
2026-05-07 20:08 47.45695 8.52729 11365 ft 344 kts 90°
2026-05-07 20:08 47.45723 8.56337 11830 ft 360 kts 89°
2026-05-07 20:09 47.45863 8.60099 12332 ft 375 kts 87°
2026-05-07 20:09 47.46021 8.63990 12817 ft 390 kts 88°
2026-05-07 20:09 47.46177 8.68056 13372 ft 404 kts 88°
2026-05-07 20:10 47.46497 8.76416 15047 ft 416 kts 87°
2026-05-07 20:10 47.46614 8.80708 15970 ft 420 kts 92°
2026-05-07 20:10 47.46314 8.84991 16850 ft 424 kts 101°
2026-05-07 20:10 47.45715 8.89274 17692 ft 429 kts 103°
2026-05-07 20:11 47.45096 8.93538 18517 ft 434 kts 103°
2026-05-07 20:11 47.44464 8.97954 19358 ft 440 kts 103°
2026-05-07 20:11 47.43828 9.02388 20160 ft 445 kts 103°
2026-05-07 20:11 47.43189 9.06824 20970 ft 450 kts 103°
2026-05-07 20:12 47.42536 9.11334 21739 ft 456 kts 102°
2026-05-07 20:12 47.41865 9.15958 22500 ft 461 kts 103°
2026-05-07 20:12 47.40958 9.20440 23243 ft 465 kts 112°
2026-05-07 20:12 47.39576 9.24747 23935 ft 469 kts 119°
2026-05-07 20:13 47.38002 9.29027 24578 ft 475 kts 120°
2026-05-07 20:13 47.36416 9.33297 25177 ft 481 kts 120°
2026-05-07 20:13 47.34814 9.37602 25757 ft 487 kts 120°
2026-05-07 20:13 47.33171 9.42013 26346 ft 492 kts 120°
2026-05-07 20:14 47.31536 9.46398 26917 ft 497 kts 120°
2026-05-07 20:14 47.29865 9.50874 27469 ft 503 kts 120°
2026-05-07 20:14 47.28159 9.55437 28031 ft 508 kts 120°
2026-05-07 20:14 47.26440 9.60024 28552 ft 514 kts 120°
2026-05-07 20:15 47.24716 9.64622 29042 ft 520 kts 120°
2026-05-07 20:15 47.22966 9.69280 29622 ft 523 kts 121°
2026-05-07 20:15 47.21219 9.73924 30303 ft 523 kts 121°
2026-05-07 20:15 47.19447 9.78626 30985 ft 523 kts 121°
2026-05-07 20:16 47.17703 9.83246 31581 ft 523 kts 121°
2026-05-07 20:16 47.15939 9.87911 32201 ft 523 kts 121°
2026-05-07 20:16 47.14187 9.92535 32797 ft 521 kts 121°
2026-05-07 20:16 47.12428 9.97170 33337 ft 521 kts 121°
2026-05-07 20:17 47.10659 10.01822 33845 ft 521 kts 122°
2026-05-07 20:17 47.08909 10.06419 34341 ft 520 kts 122°
2026-05-07 20:17 47.07150 10.11030 34749 ft 520 kts 122°
2026-05-07 20:17 47.05403 10.15600 35006 ft 522 kts 122°
2026-05-07 20:18 47.03634 10.20221 35063 ft 521 kts 122°
2026-05-07 20:18 46.99408 10.31231 35067 ft 519 kts 122°
2026-05-07 20:19 46.87888 10.61010 35072 ft 521 kts 122°
2026-05-07 20:19 46.84317 10.70178 35060 ft 519 kts 123°
2026-05-07 20:20 46.80749 10.79307 35057 ft 521 kts 123°
2026-05-07 20:20 46.76936 10.88193 35049 ft 516 kts 133°
2026-05-07 20:21 46.72010 10.95736 35058 ft 514 kts 139°
2026-05-07 20:21 46.66969 11.02978 35060 ft 510 kts 140°
2026-05-07 20:22 46.61939 11.10164 35071 ft 511 kts 140°
2026-05-07 20:22 46.56879 11.17365 35061 ft 512 kts 140°
2026-05-07 20:23 46.51804 11.24563 35037 ft 511 kts 140°
2026-05-07 20:23 46.46684 11.31726 35022 ft 508 kts 144°
2026-05-07 20:24 46.41137 11.37846 35038 ft 504 kts 148°
2026-05-07 20:24 46.35469 11.43869 35055 ft 504 kts 148°
2026-05-07 20:25 46.29834 11.49844 35060 ft 505 kts 148°
2026-05-07 20:25 46.24209 11.55796 35043 ft 504 kts 148°
2026-05-07 20:26 46.18574 11.61838 35041 ft 508 kts 144°
2026-05-07 20:26 46.13483 11.68993 35035 ft 511 kts 140°
2026-05-07 20:27 46.08524 11.76243 35029 ft 511 kts 140°
2026-05-07 20:27 46.03530 11.83512 35030 ft 512 kts 140°
2026-05-07 20:28 45.98538 11.90755 35020 ft 511 kts 140°
2026-05-07 20:28 45.93556 11.97958 35028 ft 513 kts 140°
2026-05-07 20:29 45.88518 12.05220 35020 ft 513 kts 140°
2026-05-07 20:29 45.83504 12.12428 35026 ft 513 kts 140°
2026-05-07 20:30 45.78489 12.19620 35010 ft 512 kts 140°
2026-05-07 20:30 45.73452 12.26820 35018 ft 513 kts 140°
2026-05-07 20:31 45.68424 12.33989 35024 ft 514 kts 140°
2026-05-07 20:31 45.63382 12.41157 35016 ft 513 kts 140°
2026-05-07 20:32 45.58337 12.48312 35011 ft 513 kts 140°
2026-05-07 20:32 45.53259 12.55494 35021 ft 514 kts 140°
2026-05-07 20:33 45.48214 12.62610 35013 ft 513 kts 140°
2026-05-07 20:33 45.43130 12.69762 35009 ft 513 kts 141°
2026-05-07 20:34 45.38084 12.76840 34998 ft 515 kts 141°
2026-05-07 20:34 45.33003 12.84022 34996 ft 515 kts 137°
2026-05-07 20:35 45.28915 12.92487 35002 ft 529 kts 123°
2026-05-07 20:35 45.24911 13.01008 35009 ft 517 kts 137°
2026-05-07 20:36 45.19877 13.08242 35005 ft 515 kts 141°
2026-05-07 20:36 45.14797 13.15299 35003 ft 513 kts 141°
2026-05-07 20:37 45.09699 13.22329 34999 ft 515 kts 141°
2026-05-07 20:37 45.04586 13.29347 35014 ft 514 kts 142°
2026-05-07 20:38 44.99450 13.36369 35004 ft 514 kts 142°
2026-05-07 20:38 44.94325 13.43352 35016 ft 513 kts 142°
2026-05-07 20:39 44.89204 13.50308 35019 ft 513 kts 142°
2026-05-07 20:39 44.84087 13.57242 35030 ft 513 kts 142°
2026-05-07 20:40 44.78965 13.64162 35033 ft 513 kts 142°
2026-05-07 20:40 44.73801 13.71121 35024 ft 511 kts 143°
2026-05-07 20:41 44.68712 13.77960 35022 ft 511 kts 143°
2026-05-07 20:41 44.63582 13.84838 35028 ft 511 kts 143°
2026-05-07 20:42 44.58463 13.91681 35021 ft 509 kts 143°
2026-05-07 20:42 44.53315 13.98545 35019 ft 512 kts 143°
2026-05-07 20:43 44.48180 14.05377 35020 ft 508 kts 143°
2026-05-07 20:43 44.43093 14.12127 35019 ft 509 kts 143°
2026-05-07 20:44 44.37962 14.18916 35019 ft 510 kts 143°
2026-05-07 20:44 44.32833 14.25688 35018 ft 508 kts 143°
2026-05-07 20:45 44.27688 14.32462 35022 ft 509 kts 143°
2026-05-07 20:45 44.22567 14.39189 35020 ft 507 kts 143°
2026-05-07 20:46 44.17440 14.45905 35017 ft 508 kts 143°
2026-05-07 20:46 44.12309 14.52610 35019 ft 509 kts 143°
2026-05-07 20:47 44.07174 14.59305 35021 ft 508 kts 143°
2026-05-07 20:47 44.02018 14.66010 35014 ft 506 kts 144°
2026-05-07 20:48 43.96908 14.72638 35003 ft 507 kts 144°
2026-05-07 20:48 43.91722 14.79347 35006 ft 508 kts 144°
2026-05-07 20:49 43.86534 14.86039 35014 ft 517 kts 144°
2026-05-07 20:49 43.81222 14.92870 35136 ft 532 kts 144°
2026-05-07 20:49 43.78592 14.96250 35319 ft 533 kts 144°
2026-05-07 20:50 43.75875 14.99740 35627 ft 532 kts 144°
2026-05-07 20:50 43.73162 15.03221 35947 ft 529 kts 144°
2026-05-07 20:50 43.70507 15.06627 36005 ft 518 kts 144°
2026-05-07 20:51 43.65331 15.13247 36016 ft 508 kts 144°
2026-05-07 20:51 43.62621 15.16466 36152 ft 512 kts 149°
2026-05-07 20:51 43.59931 15.19612 36740 ft 515 kts 143°
2026-05-07 20:51 43.57342 15.23002 37007 ft 515 kts 143°
2026-05-07 20:52 43.54743 15.26410 37024 ft 512 kts 143°
2026-05-07 20:52 43.49606 15.33065 37028 ft 509 kts 143°
2026-05-07 20:53 43.44443 15.39669 37027 ft 510 kts 144°
2026-05-07 20:53 43.39249 15.46266 37026 ft 511 kts 144°
2026-05-07 20:54 43.34036 15.52851 37026 ft 512 kts 144°
2026-05-07 20:54 43.28800 15.59439 37026 ft 511 kts 144°
2026-05-07 20:55 43.23548 15.66026 37019 ft 513 kts 145°
2026-05-07 20:55 43.18320 15.72563 37010 ft 512 kts 145°
2026-05-07 20:56 43.13066 15.79117 37011 ft 511 kts 145°
2026-05-07 20:56 43.07796 15.85671 37010 ft 513 kts 145°
2026-05-07 20:57 43.02544 15.92187 37008 ft 513 kts 145°
2026-05-07 20:57 42.97282 15.98701 37007 ft 514 kts 146°
2026-05-07 20:58 42.92007 16.05213 37015 ft 515 kts 145°
2026-05-07 20:58 42.86694 16.11758 37019 ft 514 kts 145°
2026-05-07 20:59 42.81433 16.18226 37011 ft 511 kts 146°
2026-05-07 20:59 42.76121 16.24733 37009 ft 515 kts 146°
2026-05-07 21:00 42.70802 16.31237 37028 ft 519 kts 146°
2026-05-07 21:00 42.65443 16.37777 37018 ft 516 kts 145°
2026-05-07 21:01 42.60115 16.44258 37019 ft 519 kts 146°
2026-05-07 21:01 42.54762 16.50759 37030 ft 518 kts 146°
2026-05-07 21:02 42.49381 16.57276 37028 ft 518 kts 146°
2026-05-07 21:02 42.44019 16.63753 37028 ft 522 kts 146°
2026-05-07 21:02 42.41312 16.67018 37186 ft 523 kts 146°
2026-05-07 21:03 42.38612 16.70272 37022 ft 519 kts 146°
2026-05-07 21:03 42.33260 16.76710 37022 ft 518 kts 147°
2026-05-07 21:04 42.27843 16.83205 37020 ft 522 kts 146°
2026-05-07 21:04 42.22427 16.89684 37018 ft 524 kts 146°
2026-05-07 21:05 42.16991 16.96179 37021 ft 520 kts 147°
2026-05-07 21:05 42.11573 17.02629 37022 ft 526 kts 147°
2026-05-07 21:06 42.06096 17.09138 37028 ft 524 kts 147°
2026-05-07 21:06 42.00668 17.15575 37017 ft 522 kts 147°
2026-05-07 21:07 41.95177 17.22042 37018 ft 524 kts 149°
2026-05-07 21:07 41.92262 17.24847 37017 ft 508 kts 159°
2026-05-07 21:07 41.89225 17.27132 37027 ft 504 kts 162°
2026-05-07 21:08 41.83000 17.31546 37028 ft 507 kts 162°
2026-05-07 21:08 41.76787 17.35897 37034 ft 507 kts 162°
2026-05-07 21:09 41.70557 17.40227 37041 ft 507 kts 163°
2026-05-07 21:09 41.64306 17.44551 37040 ft 505 kts 163°
2026-05-07 21:10 41.58051 17.48859 37041 ft 508 kts 163°